This is the latest recevied weather packets stored in our database for station/object WP3XM. If no packets are shown the sender has not sent any weather packets the latest 10 day(s).
| Time | Temp. | Humidity | Pressure | Rain* | Wind** | Luminosity | Snow |
|---|---|---|---|---|---|---|---|
| 1778068050 | 26.67° C | 85% | 1019.7 hPa | 0 mm | - | 82 W/m² | - |
| 1778067747 | 26.67° C | 85% | 1019.6 hPa | 0 mm | - | 165 W/m² | - |
| 1778067446 | 26.67° C | 85% | 1019.7 hPa | 0 mm | - | 112 W/m² | - |
| 1778067143 | 26.67° C | 85% | 1019.5 hPa | 0 mm | - | 128 W/m² | - |
| 1778066839 | 26.67° C | 86% | 1019.5 hPa | 0 mm | - | 94 W/m² | - |
| 1778066537 | 26.11° C | 88% | 1019.4 hPa | 0 mm | - | 83 W/m² | - |
| 1778066234 | 26.11° C | 89% | 1019.4 hPa | 0 mm | - | 89 W/m² | - |
| 1778065932 | 26.11° C | 89% | 1019.6 hPa | 0 mm | - | 55 W/m² | - |
| 1778065628 | 26.11° C | 90% | 1019.5 hPa | 0 mm | - | 71 W/m² | - |
| 1778065326 | 25.56° C | 92% | 1019.2 hPa | 0 mm | - | 72 W/m² | - |
| 1778065023 | 25.56° C | 92% | 1019.4 hPa | 0 mm | - | 92 W/m² | - |
| 1778064720 | 25° C | 93% | 1019.3 hPa | 0 mm | - | 95 W/m² | - |
| 1778064418 | 25° C | 93% | 1019.2 hPa | 0 mm | - | 40 W/m² | - |
| 1778064115 | 24.44° C | 94% | 1019.3 hPa | 0 mm | - | 47 W/m² | - |
| 1778063812 | 24.44° C | 94% | 1019.4 hPa | 0 mm | - | 82 W/m² | - |
| 1778063509 | 24.44° C | 94% | 1019.3 hPa | 0 mm | - | 58 W/m² | - |
| 1778063207 | 24.44° C | 94% | 1019.1 hPa | 0 mm | - | 52 W/m² | - |
| 1778062904 | 23.89° C | 94% | 1019 hPa | 0 mm | - | 35 W/m² | - |
| 1778062601 | 23.89° C | 94% | 1018.8 hPa | 1.78 mm | - | 36 W/m² | - |
| 1778062298 | 23.89° C | 94% | 1019.1 hPa | 1.78 mm | - | 10 W/m² | - |
| 1778061996 | 23.89° C | 94% | 1019.1 hPa | 1.27 mm | - | 4 W/m² | - |
| 1778061694 | 23.33° C | 94% | 1019 hPa | 1.27 mm | - | 2 W/m² | - |
| 1778061392 | 23.33° C | 94% | 1018.9 hPa | 0 mm | - | 1 W/m² | - |
| 1778061089 | 23.33° C | 93% | 1018.8 hPa | 0 mm | - | 1 W/m² | - |
| 1778060786 | 23.33° C | 93% | 1018.9 hPa | 0 mm | - | 1 W/m² | - |
* Rain latest hour (hover to see other rain measurements)
** Current wind speed in m/s (hover to see current wind gust speed)